This demonstration page uses our WeatherBlox Daily Observations layout. Learn more.

Left ArrowRight Arrow

39.51506, -84.39828

Hourly Observations for October 2, 2020

Temp ( °F °C ) Dew Point ( °F °C ) Humidity (%) Winds ( mph kmh ) Pressure ( in mb ) Visibility ( mi km ) Precip ( " mm )
12:15 am 00:15 Clear 44 6.5 40 4.7 88 88 Calm 30.13 1020 10 16.0934 0 0
12:35 am 00:35 Clear 46 7.5 41 5.2 86 86 Calm 30.13 1020 10 16.0934 0 0
12:55 am 00:55 Clear 45 7.1 41 5.2 88 88 Calm 30.13 1020 10 16.0934 0 0
1:15 am 01:15 Clear 44 6.9 42 5.3 90 90 Calm 30.13 1020 10 16.0934 0 0
1:35 am 01:35 Clear 43 6.3 41 5.2 93 93 Calm 30.13 1020 10 16.0934 0 0
1:55 am 01:55 Clear 44 6.4 42 5.5 94 94 Calm 30.13 1020 10 16.0934 0 0
2:15 am 02:15 Clear 44 6.4 42 5.5 94 94 Calm 30.13 1020 10 16.0934 0 0
2:35 am 02:35 Clear 41 5 40 4.4 96 96 Calm 30.13 1020 10 16.0934 0 0
2:55 am 02:55 Clear 40 4.6 39 4.1 97 97 Calm 30.13 1020 10 16.0934 0 0
3:15 am 03:15 Clear 42 5.5 41 5.1 97 97 Calm 30.13 1020 10 16.0934 0 0
3:35 am 03:35 Clear 43 6.1 42 5.4 95 95 Calm 30.13 1020 10 16.0934 0 0
3:55 am 03:55 Clear 41 5.1 40 4.4 95 95 Calm 30.14 1021 10 16.0934 0 0
4:15 am 04:15 Clear 42 5.8 42 5.5 98 98 Calm 30.14 1021 10 16.0934 0 0
4:35 am 04:35 Clear 42 5.4 41 4.8 96 96 Calm 30.14 1021 10 16.0934 0 0
4:55 am 04:55 Clear 42 5.3 41 4.9 97 97 SW 3 6 30.14 1021 10 16.0934 0 0
5:15 am 05:15 Clear 42 5.5 41 5.2 98 98 Calm 30.14 1021 10 16.0934 0 0
5:35 am 05:35 Clear 43 5.9 42 5.4 97 97 Calm 30.14 1021 10 16.0934 0 0
5:55 am 05:55 Clear 40 4.7 40 4.6 99 99 Calm 30.15 1021 10 16.0934 0 0
6:15 am 06:15 Clear with Mist and Fog 39 4 39 4 100 100 Calm 30.15 1021 3 4.82802 0 0
6:35 am 06:35 Mostly Cloudy with Mist and Fog 39 4 N/A N/A Calm 30.16 1021 1.25 2.011675 0 0
6:55 am 06:55 Clear 39 4 N/A N/A Calm 30.16 1021 10 16.0934 0 0
7:15 am 07:15 Hazy 39 4 N/A N/A Calm 30.17 1022 5 8.0467 0 0
7:35 am 07:35 Mostly Cloudy with Fog 37 3 N/A N/A Calm 30.18 1022 N/A 0 0
7:55 am 07:55 Mostly Cloudy with Fog 37 3 N/A N/A Calm 30.19 1022 0.25 0.402335 0 0
8:15 am 08:15 Sunny with Mist and Fog 39 4 N/A N/A Calm 30.18 1022 2.5 4.02335 0 0
8:35 am 08:35 Sunny 41 5 N/A N/A Calm 30.19 1022 10 16.0934 0 0
8:55 am 08:55 Sunny 43 6 N/A N/A Calm 30.19 1022 10 16.0934 0 0
9:15 am 09:15 Sunny 45 7.1 44 6.7 97 97 Calm 30.2 1023 10 16.0934 0 0
9:35 am 09:35 Sunny 46 7.5 44 6.6 94 94 Calm 30.21 1023 10 16.0934 0 0
9:55 am 09:55 Sunny 47 8.6 45 7 90 90 Calm 30.2 1023 10 16.0934 0 0
10:15 am 10:15 Sunny 49 9.3 44 6.8 85 85 Calm 30.2 1023 10 16.0934 0 0
10:35 am 10:35 Partly Cloudy 50 9.8 45 7.1 83 83 Calm 30.2 1023 10 16.0934 0 0
10:55 am 10:55 Partly Cloudy 51 10.4 45 7.2 81 81 Calm 30.21 1023 10 16.0934 0 0
11:15 am 11:15 Sunny 53 11.5 45 7.4 76 76 Calm 30.21 1023 10 16.0934 0 0
11:35 am 11:35 Partly Cloudy 53 11.9 45 7.1 73 73 Calm 30.2 1023 10 16.0934 0 0
11:55 am 11:55 Mostly Cloudy 55 12.9 45 7.2 69 69 Calm 30.2 1023 10 16.0934 0 0
12:15 pm 12:15 Partly Cloudy 55 13 44 6.8 66 66 Calm 30.2 1023 10 16.0934 0 0
12:35 pm 12:35 Mostly Cloudy 55 12.9 43 6 63 63 NW 7 11 30.19 1022 10 16.0934 0 0
12:55 pm 12:55 Mostly Cloudy 58 14.6 42 5.8 56 56 NNE 3 6 30.19 1022 10 16.0934 0 0
1:15 pm 13:15 Mostly Cloudy 57 14.1 42 5.3 56 56 NW 8 13 30.19 1022 10 16.0934 0 0
1:35 pm 13:35 Partly Cloudy 58 14.6 42 5.8 56 56 NW 10 17 30.18 1022 10 16.0934 0 0
1:55 pm 13:55 Partly Cloudy 60 15.8 41 4.9 49 49 W 10 17 30.16 1021 10 16.0934 0 0
2:15 pm 14:15 Cloudy 59 15 40 4.5 50 50 N 12 19 30.16 1021 10 16.0934 0 0
2:35 pm 14:35 Mostly Cloudy 60 15.8 40 4.6 48 48 N 5 7 30.15 1021 10 16.0934 0 0
2:55 pm 14:55 Mostly Cloudy 62 16.6 40 4.2 44 44 N 10 17 30.14 1021 10 16.0934 0 0
3:15 pm 15:15 Cloudy 60 15.8 39 3.8 45 45 NNW 8 13 30.14 1021 10 16.0934 0 0
3:35 pm 15:35 Cloudy 60 15.5 38 3.5 45 45 NW 9 15 30.14 1020 10 16.0934 0 0
3:55 pm 15:55 Cloudy 60 15.7 39 3.8 45 45 NW 3 6 30.13 1020 10 16.0934 0 0
4:15 pm 16:15 Partly Cloudy 60 15.7 38 3.4 44 44 WNW 8 13 30.13 1020 10 16.0934 0 0
4:35 pm 16:35 Mostly Cloudy 61 16.2 39 3.7 44 44 W 5 7 30.13 1020 10 16.0934 0 0
4:55 pm 16:55 Mostly Cloudy 61 16 39 3.7 44 44 WNW 6 9 30.13 1020 10 16.0934 0 0
5:15 pm 17:15 Mostly Cloudy 60 15.8 38 3.4 44 44 W 7 11 30.13 1020 10 16.0934 0 0
5:35 pm 17:35 Cloudy 60 15.7 37 2.9 42 42 NNW 7 11 30.13 1020 10 16.0934 0 0
5:55 pm 17:55 Cloudy 60 15.4 37 2.9 43 43 Calm 30.15 1021 10 16.0934 0 0
6:15 pm 18:15 Mostly Cloudy 60 15.4 37 2.7 43 43 WNW 6 9 30.15 1021 10 16.0934 0 0
6:35 pm 18:35 Cloudy 59 15.1 37 2.5 43 43 WNW 6 9 30.15 1021 10 16.0934 0 0
6:55 pm 18:55 Partly Cloudy 57 14.1 37 3 47 47 NW 5 7 30.15 1021 10 16.0934 0 0
7:15 pm 19:15 Partly Cloudy 56 13.2 38 3.5 52 52 NW 3 6 30.15 1021 10 16.0934 0 0
7:35 pm 19:35 Clear 51 10.5 42 5.3 70 70 Calm 30.17 1022 10 16.0934 0 0
7:55 pm 19:55 Partly Cloudy 50 10.1 42 5.6 74 74 Calm 30.17 1022 10 16.0934 0 0
8:15 pm 20:15 Clear 49 9.7 41 4.9 72 72 Calm 30.17 1022 10 16.0934 0 0
8:35 pm 20:35 Mostly Cloudy 49 9.6 42 5.7 77 77 Calm 30.18 1022 10 16.0934 0 0
8:55 pm 20:55 Mostly Cloudy 49 9.7 42 5.3 74 74 Calm 30.18 1022 10 16.0934 0 0
9:15 pm 21:15 Mostly Cloudy 49 9.5 43 6.2 80 80 Calm 30.19 1022 10 16.0934 0 0
9:35 pm 21:35 Cloudy 47 8.4 43 6.2 86 86 Calm 30.19 1022 10 16.0934 0 0
9:55 pm 21:55 Cloudy 48 8.8 44 6.4 85 85 Calm 30.2 1023 10 16.0934 0 0
10:15 pm 22:15 Cloudy 47 8.6 44 6.8 89 89 Calm 30.2 1023 10 16.0934 0 0
10:35 pm 22:35 Cloudy 48 8.7 44 6.9 89 89 Calm 30.21 1023 10 16.0934 0 0
10:55 pm 22:55 Cloudy 48 8.8 44 6.6 86 86 Calm 30.21 1023 10 16.0934 0 0
11:15 pm 23:15 Cloudy 48 8.8 44 6.7 87 87 Calm 30.21 1023 10 16.0934 0 0
11:35 pm 23:35 Cloudy 48 8.8 44 6.9 88 88 Calm 30.21 1023 10 16.0934 0 0
11:55 pm 23:55 Cloudy 47 8.6 45 7 90 90 Calm 30.21 1023 10 16.0934 0 0

Powered by AerisWeather